Location: Recife
(8.0585°S, 34.8848°W)
Time: 14:55:13
(UTC-03:00)

Tiros 1 despin weight - Pass Details

Date: 17 April 2026
Orbit: 555 x 591 km, 48.2° (Epoch: 14 May)

Event Time Altitude Azimuth Distance (km) Brightness Sun altitude
Rises 11:31:12 0° 218° (SW) 2,736 ? 71.1°
Reaches altitude 10° 11:33:28 10° 216° (SW) 1,836 ? 71.0°
Maximum altitude 11:37:39 78° 129° (SE) 569 ? 70.8°
Drops below altitude 10° 11:41:49 10° 43° (NE) 1,825 ? 70.5°
Sets 11:44:03 0° 42° (NE) 2,718 ? 70.3°
